Time,TemperatureF,DewpointF,PressureIn,WindDirection,WindDirectionDegrees,WindSpeedMPH,WindSpeedGustMPH,Humidity,HourlyPrecipIn,Conditions,Clouds,dailyrainin,SoftwareType,DateUTC
2013-05-26 00:01:00,45.9,29.2,29.16,South,181,0.0,2.2,52,0.00,,BKN250,0.00,VWS V14.01,2013-05-26 07:01:00,
2013-05-26 00:06:00,45.7,29.1,29.16,South,187,2.2,2.2,52,0.00,,BKN250,0.00,VWS V14.01,2013-05-26 07:06:00,
2013-05-26 00:11:00,45.5,29.4,29.16,SSE,155,3.6,3.6,53,0.00,,BKN250,0.00,VWS V14.01,2013-05-26 07:11:00,
2013-05-26 00:16:00,45.3,29.2,29.16,SSE,165,0.0,2.7,53,0.00,,BKN250,0.00,VWS V14.01,2013-05-26 07:16:00,
2013-05-26 00:21:00,45.3,29.2,29.16,SSE,158,2.7,2.7,53,0.00,,BKN250,0.00,VWS V14.01,2013-05-26 07:21:00,
2013-05-26 00:26:00,45.1,29.0,29.16,ENE,58,2.2,2.2,53,0.00,,BKN250,0.00,VWS V14.01,2013-05-26 07:26:00,
2013-05-26 00:31:00,45.0,28.9,29.16,South,169,2.7,2.7,53,0.00,,BKN250,0.00,VWS V14.01,2013-05-26 07:31:00,
2013-05-26 00:36:00,44.6,29.5,29.16,SE,132,2.2,3.6,55,0.00,,BKN250,0.00,VWS V14.01,2013-05-26 07:36:00,
2013-05-26 00:41:00,44.6,29.5,29.16,South,175,2.2,3.1,55,0.00,,BKN250,0.00,VWS V14.01,2013-05-26 07:41:00,
2013-05-26 00:46:00,44.4,30.2,29.16,SSW,213,0.0,2.7,57,0.00,,BKN250,0.00,VWS V14.01,2013-05-26 07:46:00,
2013-05-26 00:51:00,44.6,29.9,29.16,SSE,168,3.6,3.6,56,0.00,,BKN250,0.00,VWS V14.01,2013-05-26 07:51:00,
2013-05-26 00:56:00,44.4,30.2,29.16,SSW,195,0.0,2.2,57,0.00,,BKN250,0.00,VWS V14.01,2013-05-26 07:56:00,
2013-05-26 01:01:00,44.2,29.5,29.16,SSW,199,3.6,3.6,56,0.00,,SCT250,0.00,VWS V14.01,2013-05-26 08:01:00,
2013-05-26 01:06:00,43.9,29.6,29.16,South,185,0.0,2.2,57,0.00,,SCT250,0.00,VWS V14.01,2013-05-26 08:06:00,
2013-05-26 01:11:00,43.7,29.5,29.16,South,182,0.0,0.0,57,0.00,,SCT250,0.00,VWS V14.01,2013-05-26 08:11:00,
2013-05-26 01:16:00,43.5,29.3,29.16,SSE,168,0.0,0.0,57,0.00,,SCT250,0.00,VWS V14.01,2013-05-26 08:16:00,
2013-05-26 01:21:00,43.3,29.1,29.16,South,187,0.0,0.0,57,0.00,,SCT250,0.00,VWS V14.01,2013-05-26 08:21:00,
2013-05-26 01:26:00,43.2,29.4,29.16,South,187,0.0,0.0,58,0.00,,SCT250,0.00,VWS V14.01,2013-05-26 08:26:00,
2013-05-26 01:31:00,43.0,29.2,29.16,South,175,0.0,0.0,58,0.00,,SCT250,0.00,VWS V14.01,2013-05-26 08:31:00,
2013-05-26 01:36:00,42.8,29.1,29.16,South,175,0.0,0.0,58,0.00,,SCT250,0.00,VWS V14.01,2013-05-26 08:36:00,
2013-05-26 01:41:00,42.4,29.1,29.16,South,175,0.0,0.0,59,0.00,,SCT250,0.00,VWS V14.01,2013-05-26 08:41:00,
2013-05-26 01:46:00,42.3,29.0,29.16,South,175,2.2,2.2,59,0.00,,SCT250,0.00,VWS V14.01,2013-05-26 08:46:00,
2013-05-26 01:51:00,42.1,29.2,29.16,South,175,0.0,0.0,60,0.00,,SCT250,0.00,VWS V14.01,2013-05-26 08:51:00,
2013-05-26 01:56:00,42.1,29.6,29.16,South,190,2.2,2.2,61,0.00,,SCT250,0.00,VWS V14.01,2013-05-26 08:56:00,
2013-05-26 02:01:00,41.9,29.0,29.16,South,190,2.2,2.2,60,0.00,,FEW140,0.00,VWS V14.01,2013-05-26 09:01:00,
2013-05-26 02:06:00,41.5,28.7,29.16,South,190,2.2,2.7,60,0.00,,FEW140,0.00,VWS V14.01,2013-05-26 09:06:00,
2013-05-26 02:11:00,41.4,28.9,29.16,South,190,0.0,2.2,61,0.00,,FEW140,0.00,VWS V14.01,2013-05-26 09:11:00,
2013-05-26 02:16:00,41.4,29.3,29.16,South,190,0.0,0.0,62,0.00,,FEW140,0.00,VWS V14.01,2013-05-26 09:16:00,
2013-05-26 02:21:00,41.4,29.3,29.16,South,190,0.0,0.0,62,0.00,,FEW140,0.00,VWS V14.01,2013-05-26 09:21:00,
2013-05-26 02:26:00,41.4,29.7,29.16,South,190,0.0,0.0,63,0.00,,FEW140,0.00,VWS V14.01,2013-05-26 09:26:00,
2013-05-26 02:31:00,41.0,29.4,29.16,South,190,0.0,0.0,63,0.00,,FEW140,0.00,VWS V14.01,2013-05-26 09:31:00,
2013-05-26 02:36:00,41.0,29.4,29.16,South,190,0.0,0.0,63,0.00,,FEW140,0.00,VWS V14.01,2013-05-26 09:36:00,
2013-05-26 02:41:00,40.8,29.6,29.16,South,190,0.0,0.0,64,0.00,,FEW140,0.00,VWS V14.01,2013-05-26 09:41:00,
2013-05-26 02:45:00,40.6,29.0,29.16,South,190,0.0,0.0,63,0.00,,FEW140,0.00,VWS V14.01,2013-05-26 09:45:00,
2013-05-26 02:50:00,40.3,28.3,29.16,South,190,0.0,0.0,62,0.00,,FEW140,0.00,VWS V14.01,2013-05-26 09:50:00,
2013-05-26 02:55:00,39.7,27.4,29.16,South,190,0.0,0.0,61,0.00,,FEW140,0.00,VWS V14.01,2013-05-26 09:55:00,
2013-05-26 03:00:00,39.4,27.1,29.16,South,190,0.0,0.0,61,0.00,,OVC250,0.00,VWS V14.01,2013-05-26 10:00:00,
2013-05-26 03:05:00,39.4,27.9,29.16,South,190,0.0,0.0,63,0.00,,OVC250,0.00,VWS V14.01,2013-05-26 10:05:00,
2013-05-26 03:10:00,39.7,28.6,29.16,South,190,2.2,2.2,64,0.00,,OVC250,0.00,VWS V14.01,2013-05-26 10:10:00,
2013-05-26 03:15:00,39.9,29.1,29.16,South,190,2.2,2.2,65,0.00,,OVC250,0.00,VWS V14.01,2013-05-26 10:15:00,
2013-05-26 03:20:00,39.9,29.5,29.16,South,190,2.7,2.7,66,0.00,,OVC250,0.00,VWS V14.01,2013-05-26 10:20:00,
2013-05-26 03:25:00,39.9,29.5,29.16,South,190,0.0,0.0,66,0.00,,OVC250,0.00,VWS V14.01,2013-05-26 10:25:00,
2013-05-26 03:30:00,39.7,29.0,29.16,South,190,0.0,0.0,65,0.00,,OVC250,0.00,VWS V14.01,2013-05-26 10:30:00,
2013-05-26 03:35:00,39.7,29.3,29.13,South,190,0.0,0.0,66,0.00,,OVC250,0.00,VWS V14.01,2013-05-26 10:35:00,
2013-05-26 03:40:00,39.9,29.5,29.13,South,190,0.0,0.0,66,0.00,,OVC250,0.00,VWS V14.01,2013-05-26 10:40:00,
2013-05-26 03:45:00,39.9,29.5,29.13,South,190,2.7,2.7,66,0.00,,OVC250,0.00,VWS V14.01,2013-05-26 10:45:00,
2013-05-26 03:50:00,39.9,29.5,29.16,South,190,0.0,0.0,66,0.00,,OVC250,0.00,VWS V14.01,2013-05-26 10:50:00,
2013-05-26 03:55:00,39.9,29.5,29.16,South,190,0.0,0.0,66,0.00,,OVC250,0.00,VWS V14.01,2013-05-26 10:55:00,
2013-05-26 04:00:00,39.7,29.0,29.16,South,190,0.0,0.0,65,0.00,,BKN220,0.00,VWS V14.01,2013-05-26 11:00:00,
2013-05-26 04:05:00,39.4,28.6,29.16,South,190,0.0,0.0,65,0.00,,BKN220,0.00,VWS V14.01,2013-05-26 11:05:00,
2013-05-26 04:10:00,39.4,28.6,29.16,South,190,0.0,0.0,65,0.00,,BKN220,0.00,VWS V14.01,2013-05-26 11:10:00,
2013-05-26 04:15:00,39.0,28.3,29.16,South,190,0.0,0.0,65,0.00,,BKN220,0.00,VWS V14.01,2013-05-26 11:15:00,
2013-05-26 04:20:00,39.2,28.4,29.16,South,190,0.0,0.0,65,0.00,,BKN220,0.00,VWS V14.01,2013-05-26 11:20:00,
2013-05-26 04:25:00,38.8,28.1,29.16,South,190,0.0,0.0,65,0.00,,BKN220,0.00,VWS V14.01,2013-05-26 11:25:00,
2013-05-26 04:30:00,38.7,27.9,29.16,South,190,0.0,0.0,65,0.00,,BKN220,0.00,VWS V14.01,2013-05-26 11:30:00,
2013-05-26 04:35:00,38.5,27.8,29.16,South,190,0.0,0.0,65,0.00,,BKN220,0.00,VWS V14.01,2013-05-26 11:35:00,
2013-05-26 04:40:00,37.9,27.2,29.16,South,190,0.0,0.0,65,0.00,,BKN220,0.00,VWS V14.01,2013-05-26 11:40:00,
2013-05-26 04:45:00,37.6,26.5,29.16,South,190,0.0,0.0,64,0.00,,BKN220,0.00,VWS V14.01,2013-05-26 11:45:00,
2013-05-26 04:50:00,37.6,26.9,29.16,South,190,0.0,0.0,65,0.00,,BKN220,0.00,VWS V14.01,2013-05-26 11:50:00,
2013-05-26 04:55:00,37.4,26.7,29.16,South,190,0.0,0.0,65,0.00,,BKN220,0.00,VWS V14.01,2013-05-26 11:55:00,
2013-05-26 05:00:00,37.4,27.1,29.16,South,190,0.0,0.0,66,0.00,,BKN220,0.00,VWS V14.01,2013-05-26 12:00:00,
2013-05-26 05:05:00,37.4,27.1,29.16,South,190,0.0,0.0,66,0.00,,BKN220,0.00,VWS V14.01,2013-05-26 12:05:00,
2013-05-26 05:10:00,37.6,28.0,29.16,South,190,0.0,0.0,68,0.00,,BKN220,0.00,VWS V14.01,2013-05-26 12:10:00,
2013-05-26 05:15:00,37.4,27.5,29.16,South,190,0.0,0.0,67,0.00,,BKN220,0.00,VWS V14.01,2013-05-26 12:15:00,
2013-05-26 05:20:00,37.8,28.5,29.16,South,190,0.0,0.0,69,0.00,,BKN220,0.00,VWS V14.01,2013-05-26 12:20:00,
2013-05-26 05:25:00,38.5,29.9,29.16,South,190,0.0,0.0,71,0.00,,BKN220,0.00,VWS V14.01,2013-05-26 12:25:00,
2013-05-26 05:30:00,38.5,29.9,29.16,South,190,0.0,0.0,71,0.00,,BKN220,0.00,VWS V14.01,2013-05-26 12:30:00,
2013-05-26 05:35:00,38.7,30.1,29.16,South,190,0.0,0.0,71,0.00,,BKN220,0.00,VWS V14.01,2013-05-26 12:35:00,
2013-05-26 05:40:00,39.2,30.6,29.16,South,190,0.0,0.0,71,0.00,,BKN220,0.00,VWS V14.01,2013-05-26 12:40:00,
2013-05-26 05:45:00,39.6,31.3,29.16,South,190,0.0,0.0,72,0.00,,BKN220,0.00,VWS V14.01,2013-05-26 12:45:00,
2013-05-26 05:50:00,39.9,31.3,29.16,South,190,0.0,0.0,71,0.00,,BKN220,0.00,VWS V14.01,2013-05-26 12:50:00,
2013-05-26 05:55:00,40.6,32.3,29.16,South,190,0.0,0.0,72,0.00,,BKN220,0.00,VWS V14.01,2013-05-26 12:55:00,
2013-05-26 06:00:00,41.2,32.5,29.16,South,190,0.0,0.0,71,0.00,,BKN200,0.00,VWS V14.01,2013-05-26 13:00:00,
2013-05-26 06:05:00,41.9,32.8,29.16,South,190,0.0,0.0,70,0.00,,BKN200,0.00,VWS V14.01,2013-05-26 13:05:00,
2013-05-26 06:10:00,42.3,33.2,29.16,South,190,0.0,0.0,70,0.00,,BKN200,0.00,VWS V14.01,2013-05-26 13:10:00,
2013-05-26 06:15:00,42.8,33.0,29.16,South,190,0.0,0.0,68,0.00,,BKN200,0.00,VWS V14.01,2013-05-26 13:15:00,
2013-05-26 06:20:00,43.7,33.5,29.16,South,190,0.0,0.0,67,0.00,,BKN200,0.00,VWS V14.01,2013-05-26 13:20:00,
2013-05-26 06:25:00,44.4,33.8,29.16,South,190,0.0,0.0,66,0.00,,BKN200,0.00,VWS V14.01,2013-05-26 13:25:00,
2013-05-26 06:30:00,46.8,34.0,29.16,East,84,2.2,2.2,61,0.00,,BKN200,0.00,VWS V14.01,2013-05-26 13:30:00,
2013-05-26 06:35:00,47.3,31.5,29.16,ENE,70,4.0,5.8,54,0.00,,BKN200,0.00,VWS V14.01,2013-05-26 13:35:00,
2013-05-26 06:40:00,50.9,31.9,29.16,ENE,72,0.0,0.0,48,0.00,,BKN200,0.00,VWS V14.01,2013-05-26 13:40:00,
2013-05-26 06:45:00,51.3,30.1,29.16,ENE,65,0.0,0.0,44,0.00,,BKN200,0.00,VWS V14.01,2013-05-26 13:45:00,
2013-05-26 06:50:00,51.3,29.5,29.16,ENE,70,2.7,3.1,43,0.00,,BKN200,0.00,VWS V14.01,2013-05-26 13:50:00,
2013-05-26 06:55:00,51.1,30.0,29.16,ENE,70,2.7,2.7,44,0.00,,BKN200,0.00,VWS V14.01,2013-05-26 13:55:00,
2013-05-26 07:00:00,49.6,29.7,29.16,East,99,3.1,3.1,46,0.00,,OVC250,0.00,VWS V14.01,2013-05-26 14:00:00,
2013-05-26 07:05:00,49.8,30.4,29.16,East,94,3.6,4.0,47,0.00,,OVC250,0.00,VWS V14.01,2013-05-26 14:05:00,
2013-05-26 07:10:00,51.3,30.7,29.16,ENE,73,3.1,4.9,45,0.00,,OVC250,0.00,VWS V14.01,2013-05-26 14:10:00,
2013-05-26 07:15:00,54.3,31.1,29.16,ENE,66,3.1,4.9,41,0.00,,OVC250,0.00,VWS V14.01,2013-05-26 14:15:00,
2013-05-26 07:20:00,55.0,31.2,29.16,NE,54,0.0,2.2,40,0.00,,OVC250,0.00,VWS V14.01,2013-05-26 14:20:00,
2013-05-26 07:25:00,54.0,29.6,29.16,ENE,76,3.6,3.6,39,0.00,,OVC250,0.00,VWS V14.01,2013-05-26 14:25:00,
2013-05-26 07:30:00,54.7,30.2,29.16,NE,55,4.0,4.0,39,0.00,,OVC250,0.00,VWS V14.01,2013-05-26 14:30:00,
2013-05-26 07:35:00,55.6,31.0,29.16,East,87,2.7,3.1,39,0.00,,OVC250,0.00,VWS V14.01,2013-05-26 14:35:00,
2013-05-26 07:40:00,57.6,31.5,29.16,ENE,71,3.1,3.1,37,0.00,,OVC250,0.00,VWS V14.01,2013-05-26 14:40:00,
2013-05-26 07:45:00,60.1,32.4,29.16,East,85,0.0,2.2,35,0.00,,OVC250,0.00,VWS V14.01,2013-05-26 14:45:00,
2013-05-26 07:50:00,60.1,32.4,29.16,ENE,69,4.9,5.8,35,0.00,,OVC250,0.00,VWS V14.01,2013-05-26 14:50:00,
2013-05-26 07:55:00,59.4,31.7,29.16,NE,55,6.3,6.3,35,0.00,,OVC250,0.00,VWS V14.01,2013-05-26 14:55:00,
2013-05-26 08:00:00,58.5,30.9,29.16,ENE,69,5.8,8.1,35,0.00,,BKN200,0.00,VWS V14.01,2013-05-26 15:00:00,
2013-05-26 08:05:00,56.8,30.2,29.13,East,94,2.7,5.8,36,0.00,,BKN200,0.00,VWS V14.01,2013-05-26 15:05:00,
2013-05-26 08:10:00,58.3,31.5,29.13,East,86,3.6,3.6,36,0.00,,BKN200,0.00,VWS V14.01,2013-05-26 15:10:00,
2013-05-26 08:15:00,60.3,32.5,29.13,ENE,78,5.8,5.8,35,0.00,,BKN200,0.00,VWS V14.01,2013-05-26 15:15:00,
2013-05-26 08:20:00,61.5,32.9,29.13,NNE,29,6.3,7.6,34,0.00,,BKN200,0.00,VWS V14.01,2013-05-26 15:20:00,
2013-05-26 08:25:00,61.2,31.9,29.13,ENE,71,5.8,6.3,33,0.00,,BKN200,0.00,VWS V14.01,2013-05-26 15:25:00,
2013-05-26 08:30:00,60.4,32.0,29.13,East,82,3.1,5.8,34,0.00,,BKN200,0.00,VWS V14.01,2013-05-26 15:30:00,
2013-05-26 08:35:00,60.6,32.1,29.13,East,93,3.6,5.8,34,0.00,,BKN200,0.00,VWS V14.01,2013-05-26 15:35:00,
2013-05-26 08:40:00,59.9,31.5,29.13,ENE,78,5.8,5.8,34,0.00,,BKN200,0.00,VWS V14.01,2013-05-26 15:40:00,
2013-05-26 08:45:00,60.1,31.6,29.13,East,96,5.4,6.3,34,0.00,,BKN200,0.00,VWS V14.01,2013-05-26 15:45:00,
2013-05-26 08:50:00,60.1,31.6,29.13,ENE,70,5.8,6.7,34,0.00,,BKN200,0.00,VWS V14.01,2013-05-26 15:50:00,
2013-05-26 08:55:00,59.4,31.0,29.13,ENE,69,4.0,6.3,34,0.00,,BKN200,0.00,VWS V14.01,2013-05-26 15:55:00,
2013-05-26 09:00:00,59.2,31.6,29.13,ENE,77,4.9,7.2,35,0.00,,BKN200,0.00,VWS V14.01,2013-05-26 16:00:00,
2013-05-26 09:05:00,58.8,30.5,29.13,ENE,64,4.9,5.8,34,0.00,,BKN250,0.00,VWS V14.01,2013-05-26 16:05:00,
2013-05-26 09:10:00,58.8,31.2,29.13,East,96,4.9,6.7,35,0.00,,BKN250,0.00,VWS V14.01,2013-05-26 16:10:00,
2013-05-26 09:15:00,59.0,30.7,29.13,ENE,70,7.6,8.1,34,0.00,,BKN250,0.00,VWS V14.01,2013-05-26 16:15:00,
2013-05-26 09:20:00,59.2,30.9,29.13,ENE,68,7.6,7.6,34,0.00,,BKN250,0.00,VWS V14.01,2013-05-26 16:20:00,
2013-05-26 09:25:00,59.7,32.0,29.13,NE,36,6.7,7.6,35,0.00,,BKN250,0.00,VWS V14.01,2013-05-26 16:25:00,
2013-05-26 09:30:00,60.1,31.6,29.13,ENE,63,4.9,5.8,34,0.00,,BKN250,0.00,VWS V14.01,2013-05-26 16:30:00,
2013-05-26 09:35:00,60.1,30.9,29.13,NE,39,3.6,6.3,33,0.00,,BKN250,0.00,VWS V14.01,2013-05-26 16:35:00,
2013-05-26 09:40:00,60.4,32.0,29.13,East,87,2.7,3.6,34,0.00,,BKN250,0.00,VWS V14.01,2013-05-26 16:40:00,
2013-05-26 09:45:00,60.6,31.4,29.13,ENE,76,3.1,3.6,33,0.00,,BKN250,0.00,VWS V14.01,2013-05-26 16:45:00,
2013-05-26 09:50:00,60.8,32.3,29.13,ENE,68,5.8,7.6,34,0.00,,BKN250,0.00,VWS V14.01,2013-05-26 16:50:00,
2013-05-26 09:55:00,61.3,30.5,29.13,ENE,77,3.6,3.6,31,0.00,,BKN250,0.00,VWS V14.01,2013-05-26 16:55:00,
2013-05-26 10:00:00,61.9,30.9,29.13,East,96,3.6,4.9,31,0.00,,BKN250,0.00,VWS V14.01,2013-05-26 17:00:00,
2013-05-26 10:05:00,62.2,30.5,29.13,ENE,77,4.9,5.4,30,0.00,,BKN200,0.00,VWS V14.01,2013-05-26 17:05:00,
2013-05-26 10:10:00,62.6,29.9,29.13,NE,56,4.0,5.4,29,0.00,,BKN200,0.00,VWS V14.01,2013-05-26 17:10:00,
2013-05-26 10:15:00,62.8,29.2,29.13,ENE,77,2.7,4.5,28,0.00,,BKN200,0.00,VWS V14.01,2013-05-26 17:15:00,
2013-05-26 10:20:00,63.1,28.6,29.13,North,9,3.1,4.0,27,0.00,,BKN200,0.00,VWS V14.01,2013-05-26 17:20:00,
2013-05-26 10:25:00,63.1,29.5,29.13,ENE,76,6.3,6.3,28,0.00,,BKN200,0.00,VWS V14.01,2013-05-26 17:25:00,
2013-05-26 10:30:00,63.7,28.2,29.13,ENE,61,0.0,4.0,26,0.00,,BKN200,0.00,VWS V14.01,2013-05-26 17:30:00,
2013-05-26 10:35:00,64.2,28.6,29.10,ENE,64,3.6,6.3,26,0.00,,BKN200,0.00,VWS V14.01,2013-05-26 17:35:00,
2013-05-26 10:40:00,64.4,28.8,29.10,ENE,64,3.1,3.1,26,0.00,,BKN200,0.00,VWS V14.01,2013-05-26 17:40:00,
2013-05-26 10:45:00,64.8,28.1,29.10,East,87,4.0,4.9,25,0.00,,BKN200,0.00,VWS V14.01,2013-05-26 17:45:00,
2013-05-26 10:50:00,64.9,29.3,29.10,ENE,66,0.0,0.0,26,0.00,,BKN200,0.00,VWS V14.01,2013-05-26 17:50:00,
2013-05-26 10:55:00,64.9,28.3,29.10,ENE,75,2.2,2.2,25,0.00,,BKN200,0.00,VWS V14.01,2013-05-26 17:55:00,
2013-05-26 11:00:00,65.5,28.8,29.10,ENE,62,3.6,4.0,25,0.00,,BKN200,0.00,VWS V14.01,2013-05-26 18:00:00,
2013-05-26 11:05:00,65.8,30.0,29.10,SE,142,2.7,3.1,26,0.00,,BKN200,0.00,VWS V14.01,2013-05-26 18:05:00,
2013-05-26 11:10:00,66.2,28.4,29.10,East,99,2.7,2.7,24,0.00,,BKN200,0.00,VWS V14.01,2013-05-26 18:10:00,
2013-05-26 11:15:00,66.9,29.0,29.10,ENE,59,3.1,6.3,24,0.00,,BKN200,0.00,VWS V14.01,2013-05-26 18:15:00,
2013-05-26 11:20:00,66.2,28.4,29.10,ENE,74,3.6,5.4,24,0.00,,BKN200,0.00,VWS V14.01,2013-05-26 18:20:00,
2013-05-26 11:25:00,66.0,28.2,29.10,East,80,2.7,4.0,24,0.00,,BKN200,0.00,VWS V14.01,2013-05-26 18:25:00,
2013-05-26 11:30:00,66.0,28.2,29.10,ENE,60,2.7,3.1,24,0.00,,BKN200,0.00,VWS V14.01,2013-05-26 18:30:00,
2013-05-26 11:35:00,66.2,28.4,29.10,ENE,65,2.2,2.7,24,0.00,,BKN200,0.00,VWS V14.01,2013-05-26 18:35:00,
2013-05-26 11:40:00,66.9,29.0,29.10,WNW,282,0.0,0.0,24,0.00,,BKN200,0.00,VWS V14.01,2013-05-26 18:40:00,
2013-05-26 11:45:00,66.9,29.0,29.10,ESE,111,2.2,2.7,24,0.00,,BKN200,0.00,VWS V14.01,2013-05-26 18:45:00,
2013-05-26 11:50:00,67.6,29.6,29.10,East,86,5.4,5.4,24,0.00,,BKN200,0.00,VWS V14.01,2013-05-26 18:50:00,
2013-05-26 11:55:00,67.5,28.4,29.10,ENE,78,2.7,2.7,23,0.00,,BKN200,0.00,VWS V14.01,2013-05-26 18:55:00,
2013-05-26 12:00:00,67.1,29.1,29.10,ENE,61,2.2,2.2,24,0.00,,BKN200,0.00,VWS V14.01,2013-05-26 19:00:00,
2013-05-26 12:05:00,67.1,30.1,29.10,ENE,60,2.2,2.2,25,0.00,,BKN200,0.00,VWS V14.01,2013-05-26 19:05:00,
2013-05-26 12:10:00,67.5,29.4,29.10,East,84,2.2,2.2,24,0.00,,BKN200,0.00,VWS V14.01,2013-05-26 19:10:00,
2013-05-26 12:15:00,67.8,28.7,29.10,WSW,242,2.7,4.0,23,0.00,,BKN200,0.00,VWS V14.01,2013-05-26 19:15:00,
2013-05-26 12:20:00,68.7,29.5,29.10,West,259,4.0,5.8,23,0.00,,BKN200,0.00,VWS V14.01,2013-05-26 19:20:00,
2013-05-26 12:25:00,68.9,29.6,29.10,SSW,199,4.5,4.5,23,0.00,,BKN200,0.00,VWS V14.01,2013-05-26 19:25:00,
2013-05-26 12:30:00,69.3,29.9,29.10,NE,49,3.6,3.6,23,0.00,,BKN200,0.00,VWS V14.01,2013-05-26 19:30:00,
2013-05-26 12:35:00,68.7,29.5,29.10,NE,43,2.7,2.7,23,0.00,,BKN200,0.00,VWS V14.01,2013-05-26 19:35:00,
2013-05-26 12:40:00,68.7,29.5,29.10,NE,45,2.7,2.7,23,0.00,,BKN200,0.00,VWS V14.01,2013-05-26 19:40:00,
2013-05-26 12:45:00,69.4,30.1,29.10,NW,313,3.6,3.6,23,0.00,,BKN200,0.00,VWS V14.01,2013-05-26 19:45:00,
2013-05-26 12:50:00,69.8,29.3,29.10,NW,309,0.0,2.7,22,0.00,,BKN200,0.00,VWS V14.01,2013-05-26 19:50:00,
2013-05-26 12:55:00,70.2,29.6,29.10,NW,326,2.2,4.0,22,0.00,,BKN200,0.00,VWS V14.01,2013-05-26 19:55:00,
2013-05-26 13:00:00,70.0,29.4,29.10,NNW,331,0.0,0.0,22,0.00,,BKN200,0.00,VWS V14.01,2013-05-26 20:00:00,
2013-05-26 13:05:00,69.6,29.1,29.07,NW,314,2.7,3.6,22,0.00,,BKN200,0.00,VWS V14.01,2013-05-26 20:05:00,
2013-05-26 13:10:00,69.8,29.3,29.07,WNW,302,2.2,3.6,22,0.00,,BKN200,0.00,VWS V14.01,2013-05-26 20:10:00,
2013-05-26 13:15:00,70.2,29.6,29.07,WNW,284,3.6,3.6,22,0.00,,BKN200,0.00,VWS V14.01,2013-05-26 20:15:00,
2013-05-26 13:20:00,70.2,29.6,29.07,NW,312,3.1,3.1,22,0.00,,BKN200,0.00,VWS V14.01,2013-05-26 20:20:00,
2013-05-26 13:25:00,71.1,30.3,29.07,NNW,333,3.6,8.7,22,0.00,,BKN200,0.00,VWS V14.01,2013-05-26 20:25:00,
2013-05-26 13:30:00,71.1,30.3,29.07,NW,315,0.0,0.0,22,0.00,,BKN200,0.00,VWS V14.01,2013-05-26 20:30:00,
2013-05-26 13:35:00,71.2,30.5,29.07,WNW,293,3.1,3.1,22,0.00,,BKN200,0.00,VWS V14.01,2013-05-26 20:35:00,
2013-05-26 13:40:00,71.2,30.5,29.07,West,266,5.8,7.6,22,0.00,,BKN200,0.00,VWS V14.01,2013-05-26 20:40:00,
2013-05-26 13:45:00,71.4,30.6,29.07,NW,308,4.9,4.9,22,0.00,,BKN200,0.00,VWS V14.01,2013-05-26 20:45:00,
2013-05-26 13:50:00,71.4,27.0,29.07,WNW,284,3.1,3.1,19,0.00,,BKN200,0.00,VWS V14.01,2013-05-26 20:50:00,
2013-05-26 13:55:00,71.6,27.2,29.07,West,276,6.3,8.1,19,0.00,,BKN200,0.00,VWS V14.01,2013-05-26 20:55:00,
2013-05-26 14:00:00,71.8,29.8,29.07,SW,234,7.6,8.3,21,0.00,,BKN200,0.00,VWS V14.01,2013-05-26 21:00:00,
2013-05-26 14:05:00,71.6,29.6,29.07,SSW,204,2.7,3.1,21,0.00,,BKN200,0.00,VWS V14.01,2013-05-26 21:05:00,
2013-05-26 14:10:00,72.0,29.9,29.07,SW,230,3.1,4.0,21,0.00,,BKN200,0.00,VWS V14.01,2013-05-26 21:10:00,
2013-05-26 14:15:00,72.3,27.8,29.07,NNE,17,2.7,3.6,19,0.00,,BKN200,0.00,VWS V14.01,2013-05-26 21:15:00,
2013-05-26 14:20:00,72.5,27.9,29.07,NW,311,3.6,4.9,19,0.00,,BKN200,0.00,VWS V14.01,2013-05-26 21:20:00,
2013-05-26 14:25:00,72.1,27.6,29.07,NNE,14,2.2,2.2,19,0.00,,BKN200,0.00,VWS V14.01,2013-05-26 21:25:00,
2013-05-26 14:30:00,71.8,27.3,29.07,NNW,334,2.2,2.2,19,0.00,,BKN200,0.00,VWS V14.01,2013-05-26 21:30:00,
2013-05-26 14:35:00,71.6,27.2,29.07,North,353,0.0,4.0,19,0.00,,BKN200,0.00,VWS V14.01,2013-05-26 21:35:00,
2013-05-26 14:40:00,72.3,27.8,29.07,SW,231,5.8,5.8,19,0.00,,BKN200,0.00,VWS V14.01,2013-05-26 21:40:00,
2013-05-26 14:45:00,72.9,28.2,29.07,WNW,286,2.7,3.6,19,0.00,,BKN200,0.00,VWS V14.01,2013-05-26 21:45:00,
2013-05-26 14:50:00,72.9,28.2,29.07,West,265,8.7,8.7,19,0.00,,BKN200,0.00,VWS V14.01,2013-05-26 21:50:00,
2013-05-26 14:55:00,73.2,28.5,29.07,NW,317,2.7,4.0,19,0.00,,BKN200,0.00,VWS V14.01,2013-05-26 21:55:00,
2013-05-26 15:00:00,73.2,28.5,29.07,North,353,2.2,2.7,19,0.00,,BKN200,0.00,VWS V14.01,2013-05-26 22:00:00,
2013-05-26 15:05:00,73.2,28.5,29.07,NW,311,2.2,2.2,19,0.00,,BKN200,0.00,VWS V14.01,2013-05-26 22:05:00,
2013-05-26 15:10:00,73.0,28.4,29.07,NE,44,3.1,4.9,19,0.00,,BKN200,0.00,VWS V14.01,2013-05-26 22:10:00,
2013-05-26 15:15:00,72.9,28.2,29.07,North,353,0.0,0.0,19,0.00,,BKN200,0.00,VWS V14.01,2013-05-26 22:15:00,
2013-05-26 15:20:00,73.0,28.4,29.07,NE,55,4.9,4.9,19,0.00,,BKN200,0.00,VWS V14.01,2013-05-26 22:20:00,
2013-05-26 15:25:00,72.5,27.9,29.07,WNW,295,2.7,3.6,19,0.00,,BKN200,0.00,VWS V14.01,2013-05-26 22:25:00,
2013-05-26 15:30:00,73.2,28.5,29.07,WNW,303,0.0,0.0,19,0.00,,BKN200,0.00,VWS V14.01,2013-05-26 22:30:00,
2013-05-26 15:35:00,73.2,28.5,29.07,North,357,2.2,3.6,19,0.00,,BKN200,0.00,VWS V14.01,2013-05-26 22:35:00,
2013-05-26 15:40:00,72.3,27.8,29.07,NE,45,3.6,3.6,19,0.00,,BKN200,0.00,VWS V14.01,2013-05-26 22:40:00,
2013-05-26 15:45:00,71.8,27.3,29.07,NW,325,2.2,2.7,19,0.00,,BKN200,0.00,VWS V14.01,2013-05-26 22:45:00,
2013-05-26 15:50:00,72.3,27.8,29.07,WSW,249,8.1,8.1,19,0.00,,BKN200,0.00,VWS V14.01,2013-05-26 22:50:00,
2013-05-26 15:55:00,73.0,28.4,29.07,WNW,300,0.0,2.2,19,0.00,,BKN200,0.00,VWS V14.01,2013-05-26 22:55:00,
2013-05-26 16:00:00,72.9,28.2,29.07,NNW,330,4.0,5.8,19,0.00,,BKN200,0.00,VWS V14.01,2013-05-26 23:00:00,
2013-05-26 16:05:00,73.4,27.4,29.04,North,353,0.0,3.6,18,0.00,,SCT200,0.00,VWS V14.01,2013-05-26 23:05:00,
2013-05-26 16:10:00,73.4,27.4,29.04,West,271,0.0,3.6,18,0.00,,SCT200,0.00,VWS V14.01,2013-05-26 23:10:00,
2013-05-26 16:15:00,72.5,27.9,29.04,SE,142,2.7,3.6,19,0.00,,SCT200,0.00,VWS V14.01,2013-05-26 23:15:00,
2013-05-26 16:20:00,73.6,27.5,29.04,NW,318,0.0,0.0,18,0.00,,SCT200,0.00,VWS V14.01,2013-05-26 23:20:00,
2013-05-26 16:25:00,73.8,27.6,29.04,NW,311,0.0,0.0,18,0.00,,SCT200,0.00,VWS V14.01,2013-05-26 23:25:00,
2013-05-26 16:29:00,72.3,27.8,29.04,West,270,3.1,3.1,19,0.00,,SCT200,0.00,VWS V14.01,2013-05-26 23:29:00,
2013-05-26 16:34:00,71.6,27.2,29.04,NW,304,4.9,8.1,19,0.00,,SCT200,0.00,VWS V14.01,2013-05-26 23:34:00,
2013-05-26 16:39:00,71.8,27.3,29.04,West,274,7.6,8.7,19,0.00,,SCT200,0.00,VWS V14.01,2013-05-26 23:39:00,
2013-05-26 16:44:00,72.1,27.6,29.04,NW,305,5.4,5.8,19,0.00,,SCT200,0.00,VWS V14.01,2013-05-26 23:44:00,
2013-05-26 16:49:00,71.4,24.4,29.04,West,266,3.1,3.1,17,0.00,,SCT200,0.00,VWS V14.01,2013-05-26 23:49:00,
2013-05-26 16:54:00,70.3,26.2,29.04,NW,313,0.0,3.1,19,0.00,,SCT200,0.00,VWS V14.01,2013-05-26 23:54:00,
2013-05-26 16:59:00,69.8,25.7,29.04,West,270,3.1,4.0,19,0.00,,SCT200,0.00,VWS V14.01,2013-05-26 23:59:00,
2013-05-26 17:04:00,69.8,25.7,29.04,West,280,2.7,5.4,19,0.00,,SCT200,0.00,VWS V14.01,2013-05-27 00:04:00,
2013-05-26 17:09:00,69.4,26.7,29.04,WNW,294,2.7,2.7,20,0.00,,SCT200,0.00,VWS V14.01,2013-05-27 00:09:00,
2013-05-26 17:14:00,69.8,25.7,29.04,NW,321,2.2,2.2,19,0.00,,SCT200,0.00,VWS V14.01,2013-05-27 00:14:00,
2013-05-26 17:19:00,70.2,26.0,29.04,NNW,327,2.7,3.1,19,0.00,,SCT200,0.00,VWS V14.01,2013-05-27 00:19:00,
2013-05-26 17:24:00,70.5,26.3,29.04,NNW,338,0.0,3.6,19,0.00,,SCT200,0.00,VWS V14.01,2013-05-27 00:24:00,
2013-05-26 17:29:00,70.7,26.5,29.04,NW,312,2.2,3.6,19,0.00,,SCT200,0.00,VWS V14.01,2013-05-27 00:29:00,
2013-05-26 17:34:00,70.3,26.2,29.04,NW,311,4.0,4.0,19,0.00,,SCT200,0.00,VWS V14.01,2013-05-27 00:34:00,
2013-05-26 17:39:00,70.0,25.9,29.04,West,265,2.2,4.0,19,0.00,,SCT200,0.00,VWS V14.01,2013-05-27 00:39:00,
2013-05-26 17:44:00,70.0,25.9,29.04,NW,326,4.0,6.3,19,0.00,,SCT200,0.00,VWS V14.01,2013-05-27 00:44:00,
2013-05-26 17:49:00,70.0,25.9,29.04,NW,309,5.4,7.2,19,0.00,,SCT200,0.00,VWS V14.01,2013-05-27 00:49:00,
2013-05-26 17:54:00,69.4,26.7,29.04,NW,313,2.7,3.6,20,0.00,,SCT200,0.00,VWS V14.01,2013-05-27 00:54:00,
2013-05-26 17:59:00,68.9,26.2,29.04,NNW,332,2.2,2.2,20,0.00,,SCT200,0.00,VWS V14.01,2013-05-27 00:59:00,
2013-05-26 18:04:00,68.7,26.1,29.04,NNW,330,2.2,2.7,20,0.00,,SCT200,0.00,VWS V14.01,2013-05-27 01:04:00,
2013-05-26 18:09:00,68.4,21.9,29.04,NNW,348,2.2,2.7,17,0.00,,SCT200,0.00,VWS V14.01,2013-05-27 01:09:00,
2013-05-26 18:14:00,68.4,25.8,29.04,NW,324,3.1,3.1,20,0.00,,SCT200,0.00,VWS V14.01,2013-05-27 01:14:00,
2013-05-26 18:19:00,68.2,25.6,29.04,West,278,3.1,3.6,20,0.00,,SCT200,0.00,VWS V14.01,2013-05-27 01:19:00,
2013-05-26 18:24:00,68.4,25.8,29.04,West,268,5.8,8.1,20,0.00,,SCT200,0.00,VWS V14.01,2013-05-27 01:24:00,
2013-05-26 18:29:00,68.7,26.1,29.04,West,264,3.1,5.4,20,0.00,,SCT200,0.00,VWS V14.01,2013-05-27 01:29:00,
2013-05-26 18:34:00,68.9,26.2,29.04,NW,322,0.0,0.0,20,0.00,,SCT200,0.00,VWS V14.01,2013-05-27 01:34:00,
2013-05-26 18:39:00,69.1,26.4,29.04,NW,309,5.8,7.6,20,0.00,,SCT200,0.00,VWS V14.01,2013-05-27 01:39:00,
2013-05-26 18:44:00,69.1,26.4,29.04,WNW,301,2.7,2.7,20,0.00,,SCT200,0.00,VWS V14.01,2013-05-27 01:44:00,
2013-05-26 18:49:00,68.7,26.1,29.07,West,269,3.6,5.4,20,0.00,,SCT200,0.00,VWS V14.01,2013-05-27 01:49:00,
2013-05-26 18:54:00,68.2,25.6,29.07,NW,326,2.2,2.7,20,0.00,,SCT200,0.00,VWS V14.01,2013-05-27 01:54:00,
2013-05-26 18:59:00,68.0,25.5,29.07,NW,322,2.7,3.6,20,0.00,,SCT200,0.00,VWS V14.01,2013-05-27 01:59:00,
2013-05-26 19:04:00,68.0,25.5,29.07,NNW,334,2.7,2.7,20,0.00,,BKN200,0.00,VWS V14.01,2013-05-27 02:04:00,
2013-05-26 19:09:00,67.6,25.2,29.07,South,176,3.1,3.1,20,0.00,,BKN200,0.00,VWS V14.01,2013-05-27 02:09:00,
2013-05-26 19:14:00,67.6,25.2,29.07,WNW,297,4.0,4.9,20,0.00,,BKN200,0.00,VWS V14.01,2013-05-27 02:14:00,
2013-05-26 19:19:00,67.5,25.0,29.07,West,261,5.4,9.6,20,0.00,,BKN200,0.00,VWS V14.01,2013-05-27 02:19:00,
2013-05-26 19:24:00,66.9,24.6,29.07,NW,324,3.1,5.8,20,0.00,,BKN200,0.00,VWS V14.01,2013-05-27 02:24:00,
2013-05-26 19:29:00,66.6,24.3,29.07,West,268,3.6,5.4,20,0.00,,BKN200,0.00,VWS V14.01,2013-05-27 02:29:00,
2013-05-26 19:34:00,66.2,24.0,29.07,WNW,300,3.6,3.6,20,0.00,,BKN200,0.00,VWS V14.01,2013-05-27 02:34:00,
2013-05-26 19:39:00,65.8,23.7,29.07,NW,321,2.7,2.7,20,0.00,,BKN200,0.00,VWS V14.01,2013-05-27 02:39:00,
2013-05-26 19:44:00,65.8,23.7,29.07,WNW,293,6.7,6.7,20,0.00,,BKN200,0.00,VWS V14.01,2013-05-27 02:44:00,
2013-05-26 19:49:00,65.5,26.7,29.07,West,268,7.6,7.6,23,0.00,,BKN200,0.00,VWS V14.01,2013-05-27 02:49:00,
2013-05-26 19:54:00,65.5,26.7,29.07,WNW,301,3.6,5.8,23,0.00,,BKN200,0.00,VWS V14.01,2013-05-27 02:54:00,
2013-05-26 19:59:00,65.3,26.6,29.07,NW,319,3.1,3.1,23,0.00,,BKN200,0.00,VWS V14.01,2013-05-27 02:59:00,
2013-05-26 20:04:00,65.1,26.4,29.07,West,277,5.8,7.6,23,0.00,,BKN200,0.00,VWS V14.01,2013-05-27 03:04:00,
2013-05-26 20:09:00,65.1,26.4,29.07,WNW,286,8.1,8.1,23,0.00,,BKN200,0.00,VWS V14.01,2013-05-27 03:09:00,
2013-05-26 20:14:00,64.8,26.1,29.07,WSW,258,6.3,6.3,23,0.00,,BKN200,0.00,VWS V14.01,2013-05-27 03:14:00,
2013-05-26 20:19:00,64.4,25.8,29.07,WSW,253,8.1,8.7,23,0.00,,BKN200,0.00,VWS V14.01,2013-05-27 03:19:00,
2013-05-26 20:24:00,64.2,25.7,29.07,WSW,252,7.6,7.6,23,0.00,,BKN200,0.00,VWS V14.01,2013-05-27 03:24:00,
2013-05-26 20:29:00,63.9,25.4,29.07,West,265,6.3,6.3,23,0.00,,BKN200,0.00,VWS V14.01,2013-05-27 03:29:00,
2013-05-26 20:34:00,63.5,25.1,29.10,NW,317,6.3,6.3,23,0.00,,BKN200,0.00,VWS V14.01,2013-05-27 03:34:00,
2013-05-26 20:39:00,63.5,25.1,29.10,WNW,289,2.7,3.1,23,0.00,,BKN200,0.00,VWS V14.01,2013-05-27 03:39:00,
2013-05-26 20:44:00,63.1,24.8,29.10,NW,311,4.0,4.9,23,0.00,,BKN200,0.00,VWS V14.01,2013-05-27 03:44:00,
2013-05-26 20:49:00,63.0,25.6,29.10,NW,318,4.0,5.4,24,0.00,,BKN200,0.00,VWS V14.01,2013-05-27 03:49:00,
2013-05-26 20:54:00,62.6,25.3,29.10,NW,313,3.6,3.6,24,0.00,,BKN200,0.00,VWS V14.01,2013-05-27 03:54:00,
2013-05-26 20:59:00,62.2,25.0,29.10,WNW,300,2.2,5.8,24,0.00,,BKN200,0.00,VWS V14.01,2013-05-27 03:59:00,
2013-05-26 21:01:00,62.2,25.0,29.10,NW,308,2.7,3.1,24,0.00,,BKN200,0.00,VWS V14.01,2013-05-27 04:01:00,
2013-05-26 21:06:00,61.9,24.7,29.10,WNW,298,4.0,4.0,24,0.00,,BKN200,0.00,VWS V14.01,2013-05-27 04:06:00,
2013-05-26 21:11:00,61.7,25.5,29.10,West,276,5.8,7.6,25,0.00,,BKN200,0.00,VWS V14.01,2013-05-27 04:11:00,
2013-05-26 21:16:00,61.3,25.2,29.10,WSW,237,7.6,8.1,25,0.00,,BKN200,0.00,VWS V14.01,2013-05-27 04:16:00,
2013-05-26 21:21:00,61.0,25.9,29.10,West,269,5.4,8.1,26,0.00,,BKN200,0.00,VWS V14.01,2013-05-27 04:21:00,
2013-05-26 21:26:00,60.8,25.7,29.10,WSW,254,6.3,7.6,26,0.00,,BKN200,0.00,VWS V14.01,2013-05-27 04:26:00,
2013-05-26 21:31:00,60.4,26.3,29.10,WSW,253,8.3,8.3,27,0.00,,BKN200,0.00,VWS V14.01,2013-05-27 04:31:00,
2013-05-26 21:36:00,60.3,27.0,29.10,WSW,252,3.1,4.0,28,0.00,,BKN200,0.00,VWS V14.01,2013-05-27 04:36:00,
2013-05-26 21:41:00,60.1,26.9,29.10,WSW,238,6.3,6.3,28,0.00,,BKN200,0.00,VWS V14.01,2013-05-27 04:41:00,
2013-05-26 21:46:00,59.9,26.7,29.10,West,271,7.6,8.3,28,0.00,,BKN200,0.00,VWS V14.01,2013-05-27 04:46:00,
2013-05-26 21:51:00,59.9,26.7,29.10,WSW,249,3.1,4.9,28,0.00,,BKN200,0.00,VWS V14.01,2013-05-27 04:51:00,
2013-05-26 21:56:00,59.7,27.4,29.10,WNW,289,6.3,8.3,29,0.00,,BKN200,0.00,VWS V14.01,2013-05-27 04:56:00,
2013-05-26 22:01:00,59.5,27.3,29.10,WSW,247,5.8,8.7,29,0.00,,OVC090,0.00,VWS V14.01,2013-05-27 05:01:00,
2013-05-26 22:06:00,59.5,27.3,29.10,West,261,4.0,4.9,29,0.00,,OVC090,0.00,VWS V14.01,2013-05-27 05:06:00,
2013-05-26 22:11:00,59.4,27.1,29.10,WSW,239,3.1,3.6,29,0.00,,OVC090,0.00,VWS V14.01,2013-05-27 05:11:00,
2013-05-26 22:16:00,59.2,27.8,29.10,SW,216,2.7,3.1,30,0.00,,OVC090,0.00,VWS V14.01,2013-05-27 05:16:00,
2013-05-26 22:21:00,59.2,27.8,29.10,SSW,207,4.9,4.9,30,0.00,,OVC090,0.00,VWS V14.01,2013-05-27 05:21:00,
2013-05-26 22:26:00,59.0,28.4,29.10,WSW,238,5.8,6.3,31,0.00,,OVC090,0.00,VWS V14.01,2013-05-27 05:26:00,
2013-05-26 22:31:00,58.8,29.0,29.10,West,265,6.3,6.3,32,0.00,,OVC090,0.00,VWS V14.01,2013-05-27 05:31:00,
2013-05-26 22:36:00,58.8,29.0,29.13,WSW,237,4.0,4.0,32,0.00,,OVC090,0.00,VWS V14.01,2013-05-27 05:36:00,
2013-05-26 22:41:00,58.6,29.6,29.13,WSW,237,2.7,4.0,33,0.00,,OVC090,0.00,VWS V14.01,2013-05-27 05:41:00,
2013-05-26 22:46:00,58.5,30.2,29.13,WSW,246,5.8,5.8,34,0.00,,OVC090,0.00,VWS V14.01,2013-05-27 05:46:00,
2013-05-26 22:51:00,58.3,30.1,29.13,WSW,255,6.7,6.7,34,0.00,,OVC090,0.00,VWS V14.01,2013-05-27 05:51:00,
2013-05-26 22:56:00,58.3,30.1,29.13,WSW,249,2.7,4.0,34,0.00,,OVC090,0.00,VWS V14.01,2013-05-27 05:56:00,
2013-05-26 23:01:00,58.1,30.6,29.13,SW,230,2.7,3.1,35,0.00,,-RA,0.00,VWS V14.01,2013-05-27 06:01:00,
2013-05-26 23:06:00,57.9,30.5,29.13,WSW,238,5.4,5.4,35,0.00,,-RA,0.00,VWS V14.01,2013-05-27 06:06:00,
2013-05-26 23:11:00,57.7,30.3,29.13,SW,223,2.7,2.7,35,0.00,,-RA,0.00,VWS V14.01,2013-05-27 06:11:00,
2013-05-26 23:16:00,57.6,30.1,29.13,SW,234,4.0,4.9,35,0.00,,-RA,0.00,VWS V14.01,2013-05-27 06:16:00,
2013-05-26 23:21:00,57.4,30.0,29.13,SW,226,4.0,4.0,35,0.00,,-RA,0.00,VWS V14.01,2013-05-27 06:21:00,
2013-05-26 23:26:00,57.2,29.8,29.13,SW,221,4.0,5.4,35,0.00,,-RA,0.00,VWS V14.01,2013-05-27 06:26:00,
2013-05-26 23:31:00,57.2,29.8,29.13,SW,229,4.0,4.0,35,0.00,,-RA,0.00,VWS V14.01,2013-05-27 06:31:00,
2013-05-26 23:36:00,57.0,30.4,29.13,SW,233,3.6,6.3,36,0.00,,-RA,0.00,VWS V14.01,2013-05-27 06:36:00,
2013-05-26 23:41:00,57.0,30.4,29.13,SW,230,2.7,4.0,36,0.00,,-RA,0.00,VWS V14.01,2013-05-27 06:41:00,
2013-05-26 23:46:00,56.8,30.2,29.13,SW,233,4.0,5.4,36,0.00,,-RA,0.00,VWS V14.01,2013-05-27 06:46:00,
2013-05-26 23:51:00,56.8,30.2,29.13,WSW,240,5.8,8.1,36,0.00,,-RA,0.00,VWS V14.01,2013-05-27 06:51:00,
2013-05-26 23:56:00,56.8,30.2,29.13,SW,226,3.1,3.6,36,0.00,,-RA,0.00,VWS V14.01,2013-05-27 06:56:00,